Location: Unspecified
(0.0000°N, 0.0000°E)
Time: 04:23:34
(UTC+00:00)

FENGYUN 1C DEB - Pass Details

Date: 16 February 2026
Orbit: 775 x 802 km, 98.9° (Epoch: 9 April)

Event Time Altitude Azimuth Distance (km) Brightness Sun altitude
Rises 05:14:39 0° 196° (SSW) 3,198 ? -14.5°
Reaches altitude 10° 05:17:36 10° 214° (SW) 2,275 ? -13.8°
Maximum altitude 05:20:58 18° 257° (WSW) 1,776 ? -13.0°
Enters shadow 05:22:01 17° 273° (W) 1,832 ? -12.7°
